Location: Aranbee
(34.0885°N, 118.2342°W)
Time: 11:08:14
(UTC+00:00)

S-56A Canister/Altair - Pass Details

Date: 06 August 2021
Orbit: 632 x 2500 km, 38.9° (Epoch: 18 September)

Event Time Altitude Azimuth Distance (km) Brightness Sun altitude
Rises 02:56:17 0° 293° (WNW) 6,078 16.1 -2.1°
Reaches altitude 10° 03:00:13 10° 291° (WNW) 5,139 13.9 -2.8°
Maximum altitude 03:15:10 66° 214° (SW) 2,541 10.2 -5.7°
Drops below altitude 10° 03:27:42 10° 135° (SE) 4,368 10.8 -8.0°
Enters shadow 03:28:39 - 134° (SE) 4,607 10.9 -8.2°
